DHL1407 UKBB-EDDP

Flight info

Callsign DHL1407
Flight time 1h 58m
Altitude 38000
Route KAFEL N164 LAPVA DCT GIDNO T708 DIBED/N0459F380 L981 ETITI DCT LUMVE DCT NAROX Z348 RENDO M748 OSKAN DCT LUXBO LUXBO1R
Aircraft A333/H-SDE3GHIJ2J3J5M1RVWXY/LB2D1

Departure

Time 2026-05-07 23:17
Airport Boryspil International Airport (UKBB)

Arrival

Time 2026-05-08 01:15
Airport Leipzig/Halle Airport (EDDP)
Time Latitude Longitude Altitude Speed Heading
2026-05-07 22:57 50.33463 30.88742 418 ft 0 kts 187°
2026-05-07 23:00 50.33473 30.88744 410 ft 3 kts 180°
2026-05-07 23:00 50.33487 30.88744 409 ft 3 kts 184°
2026-05-07 23:01 50.33505 30.88746 407 ft 3 kts 175°
2026-05-07 23:01 50.33522 30.88739 412 ft 3 kts 136°
2026-05-07 23:01 50.33533 30.88715 407 ft 3 kts 104°
2026-05-07 23:01 50.33536 30.88686 408 ft 2 kts 93°
2026-05-07 23:02 50.33537 30.88677 409 ft 1 kts 92°
2026-05-07 23:05 50.33537 30.88678 409 ft 1 kts 92°
2026-05-07 23:05 50.33536 30.88690 410 ft 2 kts 93°
2026-05-07 23:05 50.33535 30.88715 407 ft 4 kts 94°
2026-05-07 23:06 50.33533 30.88769 408 ft 6 kts 92°
2026-05-07 23:06 50.33530 30.88838 412 ft 7 kts 94°
2026-05-07 23:06 50.33528 30.88920 411 ft 8 kts 92°
2026-05-07 23:06 50.33526 30.89015 410 ft 9 kts 92°
2026-05-07 23:07 50.33521 30.89122 413 ft 10 kts 90°
2026-05-07 23:07 50.33519 30.89237 412 ft 11 kts 94°
2026-05-07 23:07 50.33515 30.89364 416 ft 12 kts 95°
2026-05-07 23:07 50.33510 30.89497 413 ft 12 kts 89°
2026-05-07 23:08 50.33508 30.89632 416 ft 13 kts 92°
2026-05-07 23:08 50.33504 30.89777 418 ft 14 kts 92°
2026-05-07 23:08 50.33500 30.89929 419 ft 14 kts 92°
2026-05-07 23:08 50.33514 30.90080 408 ft 14 kts 58°
2026-05-07 23:09 50.33597 30.90139 409 ft 13 kts
2026-05-07 23:09 50.33689 30.90148 414 ft 14 kts
2026-05-07 23:09 50.33785 30.90162 416 ft 13 kts 358°
2026-05-07 23:09 50.33881 30.90159 412 ft 14 kts
2026-05-07 23:10 50.33983 30.90175 412 ft 15 kts
2026-05-07 23:10 50.34089 30.90214 410 ft 16 kts 16°
2026-05-07 23:10 50.34167 30.90199 413 ft 13 kts 348°
2026-05-07 23:10 50.34268 30.90191 411 ft 15 kts
2026-05-07 23:11 50.34371 30.90196 410 ft 15 kts
2026-05-07 23:11 50.34475 30.90201 414 ft 15 kts
2026-05-07 23:11 50.34580 30.90212 410 ft 15 kts
2026-05-07 23:11 50.34684 30.90217 410 ft 15 kts
2026-05-07 23:12 50.34793 30.90222 408 ft 16 kts
2026-05-07 23:12 50.34903 30.90232 418 ft 16 kts
2026-05-07 23:12 50.35015 30.90241 413 ft 16 kts
2026-05-07 23:12 50.35127 30.90254 410 ft 16 kts
2026-05-07 23:13 50.35240 30.90263 409 ft 16 kts
2026-05-07 23:13 50.35353 30.90270 409 ft 17 kts
2026-05-07 23:13 50.35467 30.90278 408 ft 16 kts
2026-05-07 23:13 50.35578 30.90287 415 ft 16 kts
2026-05-07 23:14 50.35688 30.90295 416 ft 16 kts
2026-05-07 23:14 50.35800 30.90305 413 ft 16 kts
2026-05-07 23:14 50.35911 30.90312 411 ft 16 kts
2026-05-07 23:14 50.36014 30.90333 413 ft 12 kts 14°
2026-05-07 23:15 50.36076 30.90416 407 ft 12 kts 65°
2026-05-07 23:15 50.36070 30.90530 412 ft 10 kts 118°
2026-05-07 23:15 50.36027 30.90601 417 ft 9 kts 144°
2026-05-07 23:15 50.35972 30.90633 412 ft 8 kts 170°
2026-05-07 23:16 50.35952 30.90636 417 ft 0 kts 176°
2026-05-07 23:16 50.35925 30.90637 420 ft 17 kts 178°
2026-05-07 23:16 50.35561 30.90624 413 ft 88 kts 184°
2026-05-07 23:16 50.34718 30.90562 416 ft 154 kts 182°
2026-05-07 23:17 50.33498 30.90488 902 ft 183 kts 182°
2026-05-07 23:17 50.32249 30.90437 2059 ft 180 kts 186°
2026-05-07 23:17 50.31005 30.90392 3248 ft 176 kts 183°
2026-05-07 23:17 50.29766 30.90477 3882 ft 187 kts 178°
2026-05-07 23:18 50.28404 30.90572 4308 ft 203 kts 185°
2026-05-07 23:18 50.26947 30.90488 4842 ft 218 kts 187°
2026-05-07 23:18 50.25365 30.90190 5157 ft 240 kts 189°
2026-05-07 23:18 50.23648 30.89876 5613 ft 254 kts 187°
2026-05-07 23:19 50.21868 30.89645 6328 ft 258 kts 185°
2026-05-07 23:19 50.20077 30.89472 7100 ft 259 kts 184°
2026-05-07 23:19 50.18263 30.89420 7799 ft 264 kts 176°
2026-05-07 23:19 50.16484 30.90219 8470 ft 272 kts 152°
2026-05-07 23:20 50.15089 30.92250 9177 ft 281 kts 125°
2026-05-07 23:20 50.14464 30.95161 9886 ft 291 kts 96°
2026-05-07 23:20 50.14573 30.98353 10442 ft 302 kts 86°
2026-05-07 23:20 50.14818 31.01701 10725 ft 319 kts 92°
2026-05-07 23:21 50.14558 31.05143 10993 ft 333 kts 103°
2026-05-07 23:21 50.14485 31.08849 11191 ft 356 kts 82°
2026-05-07 23:21 50.15397 31.12543 11409 ft 378 kts 59°
2026-05-07 23:21 50.17213 31.15567 11859 ft 390 kts 37°
2026-05-07 23:22 50.19663 31.17427 12434 ft 396 kts 15°
2026-05-07 23:22 50.22402 31.17861 13040 ft 399 kts 354°
2026-05-07 23:22 50.25086 31.16815 13639 ft 400 kts 334°
2026-05-07 23:22 50.27391 31.14416 14212 ft 399 kts 314°
2026-05-07 23:23 50.29299 31.11277 14794 ft 399 kts 308°
2026-05-07 23:23 50.30842 31.07683 15359 ft 398 kts 294°
2026-05-07 23:23 50.31853 31.03652 15938 ft 398 kts 286°
2026-05-07 23:23 50.32669 30.99494 16507 ft 400 kts 284°
2026-05-07 23:24 50.33428 30.95293 17063 ft 403 kts 283°
2026-05-07 23:24 50.34172 30.91049 17671 ft 404 kts 283°
2026-05-07 23:24 50.34909 30.86787 18230 ft 407 kts 283°
2026-05-07 23:24 50.35647 30.82482 18752 ft 411 kts 283°
2026-05-07 23:25 50.36378 30.78199 19272 ft 414 kts 283°
2026-05-07 23:25 50.37120 30.73830 19807 ft 417 kts 283°
2026-05-07 23:25 50.37865 30.69424 20334 ft 420 kts 283°
2026-05-07 23:25 50.38614 30.64982 20841 ft 423 kts 283°
2026-05-07 23:26 50.39367 30.60507 21342 ft 426 kts 283°
2026-05-07 23:26 50.40124 30.55998 21842 ft 429 kts 283°
2026-05-07 23:26 50.40884 30.51459 22346 ft 432 kts 283°
2026-05-07 23:26 50.41648 30.46890 22859 ft 434 kts 283°
2026-05-07 23:27 50.43182 30.37662 23762 ft 441 kts 283°
2026-05-07 23:27 50.43959 30.32984 24151 ft 443 kts 283°
2026-05-07 23:27 50.44737 30.28289 24552 ft 446 kts 283°
2026-05-07 23:28 50.45517 30.23566 24938 ft 448 kts 283°
2026-05-07 23:28 50.46296 30.18829 25265 ft 450 kts 283°
2026-05-07 23:28 50.47067 30.14113 25564 ft 452 kts 283°
2026-05-07 23:28 50.47849 30.09317 25889 ft 454 kts 283°
2026-05-07 23:29 50.48629 30.04516 26221 ft 455 kts 283°
2026-05-07 23:29 50.49413 29.99684 26534 ft 457 kts 283°
2026-05-07 23:29 50.50195 29.94834 26851 ft 459 kts 283°
2026-05-07 23:29 50.50999 29.89833 27172 ft 461 kts 283°
2026-05-07 23:30 50.51765 29.85061 27472 ft 463 kts 283°
2026-05-07 23:30 50.52553 29.80143 27774 ft 465 kts 283°
2026-05-07 23:30 50.53341 29.75216 28082 ft 466 kts 283°
2026-05-07 23:30 50.54132 29.70266 28373 ft 468 kts 283°
2026-05-07 23:31 50.54928 29.65274 28667 ft 470 kts 283°
2026-05-07 23:31 50.55713 29.60335 28956 ft 472 kts 283°
2026-05-07 23:31 50.56504 29.55322 29360 ft 471 kts 283°
2026-05-07 23:31 50.57288 29.50341 29831 ft 469 kts 283°
2026-05-07 23:32 50.58071 29.45363 30245 ft 467 kts 283°
2026-05-07 23:32 50.58846 29.40416 30617 ft 465 kts 283°
2026-05-07 23:32 50.59528 29.35444 31004 ft 462 kts 278°
2026-05-07 23:32 50.59808 29.30426 31375 ft 458 kts 269°
2026-05-07 23:33 50.59579 29.25437 31770 ft 455 kts 261°
2026-05-07 23:33 50.58848 29.20620 32156 ft 452 kts 253°
2026-05-07 23:33 50.57837 29.15943 32540 ft 450 kts 250°
2026-05-07 23:33 50.56716 29.11349 32897 ft 449 kts 249°
2026-05-07 23:34 50.55556 29.06861 33234 ft 447 kts 248°
2026-05-07 23:34 50.54370 29.02353 33662 ft 445 kts 248°
2026-05-07 23:34 50.53196 28.97882 34033 ft 443 kts 248°
2026-05-07 23:34 50.52025 28.93402 34295 ft 442 kts 248°
2026-05-07 23:35 50.50862 28.88922 34523 ft 442 kts 248°
2026-05-07 23:35 50.49701 28.84436 34736 ft 443 kts 249°
2026-05-07 23:35 50.48543 28.79955 34967 ft 443 kts 249°
2026-05-07 23:35 50.47385 28.75478 35195 ft 443 kts 248°
2026-05-07 23:36 50.46288 28.70968 35430 ft 442 kts 252°
2026-05-07 23:36 50.45496 28.66307 35649 ft 443 kts 257°
2026-05-07 23:36 50.44861 28.61567 35842 ft 443 kts 259°
2026-05-07 23:36 50.44283 28.56807 36053 ft 444 kts 259°
2026-05-07 23:37 50.43735 28.52046 36257 ft 444 kts 260°
2026-05-07 23:37 50.43198 28.47273 36451 ft 444 kts 260°
2026-05-07 23:37 50.42667 28.42564 36668 ft 444 kts 259°
2026-05-07 23:37 50.42123 28.37802 36837 ft 444 kts 259°
2026-05-07 23:38 50.41571 28.33024 37042 ft 444 kts 259°
2026-05-07 23:38 50.41015 28.28266 37229 ft 444 kts 259°
2026-05-07 23:38 50.40453 28.23509 37436 ft 444 kts 259°
2026-05-07 23:38 50.39888 28.18747 37622 ft 443 kts 259°
2026-05-07 23:39 50.39321 28.13993 37815 ft 443 kts 259°
2026-05-07 23:39 50.38754 28.09246 37976 ft 444 kts 259°
2026-05-07 23:39 50.37613 27.99741 38006 ft 443 kts 259°
2026-05-07 23:40 50.36468 27.90265 38007 ft 442 kts 259°
2026-05-07 23:40 50.35322 27.80859 38020 ft 442 kts 259°
2026-05-07 23:41 50.34164 27.71396 38001 ft 442 kts 259°
2026-05-07 23:41 50.32998 27.61965 38003 ft 441 kts 259°
2026-05-07 23:42 50.31828 27.52538 38003 ft 441 kts 259°
2026-05-07 23:42 50.30652 27.43118 38002 ft 441 kts 258°
2026-05-07 23:43 50.29462 27.33695 38004 ft 441 kts 258°
2026-05-07 23:43 50.28268 27.24284 38004 ft 441 kts 258°
2026-05-07 23:44 50.27075 27.14947 38004 ft 440 kts 258°
2026-05-07 23:44 50.25867 27.05568 38004 ft 439 kts 258°
2026-05-07 23:45 50.24654 26.96213 38007 ft 439 kts 258°
2026-05-07 23:45 50.23436 26.86849 38007 ft 439 kts 258°
2026-05-07 23:46 50.22212 26.77501 38001 ft 439 kts 258°
2026-05-07 23:46 50.20979 26.68152 38004 ft 439 kts 258°
2026-05-07 23:47 50.19731 26.58807 38010 ft 439 kts 258°
2026-05-07 23:47 50.18489 26.49494 38004 ft 438 kts 257°
2026-05-07 23:48 50.17225 26.40213 38005 ft 437 kts 257°
2026-05-07 23:48 50.15950 26.30933 38004 ft 437 kts 257°
2026-05-07 23:49 50.14698 26.21718 38001 ft 437 kts 257°
2026-05-07 23:49 50.13437 26.12449 38001 ft 437 kts 257°
2026-05-07 23:50 50.12410 26.04679 38004 ft 437 kts 261°
2026-05-07 23:50 50.11668 25.95335 38000 ft 437 kts 262°
2026-05-07 23:51 50.11027 25.85914 38001 ft 437 kts 263°
2026-05-07 23:51 50.10411 25.76488 38001 ft 437 kts 262°
2026-05-07 23:52 50.09755 25.67070 37999 ft 437 kts 262°
2026-05-07 23:52 50.09099 25.57673 38000 ft 436 kts 263°
2026-05-07 23:53 50.08449 25.48280 38022 ft 436 kts 262°
2026-05-07 23:53 50.07791 25.38915 37995 ft 434 kts 262°
2026-05-07 23:54 50.07130 25.29628 38005 ft 434 kts 262°
2026-05-07 23:54 50.06460 25.20292 37997 ft 434 kts 262°
2026-05-07 23:55 50.05794 25.10949 38001 ft 434 kts 262°
2026-05-07 23:55 50.05123 25.01611 37996 ft 434 kts 262°
2026-05-07 23:56 50.04419 24.92283 37997 ft 434 kts 261°
2026-05-07 23:56 50.03696 24.82984 37990 ft 433 kts 261°
2026-05-07 23:57 50.02993 24.73686 37995 ft 432 kts 262°
2026-05-07 23:57 50.02289 24.64450 37995 ft 432 kts 261°
2026-05-07 23:58 50.01578 24.55156 37994 ft 432 kts 262°
2026-05-07 23:58 50.00863 24.45878 37993 ft 432 kts 262°
2026-05-07 23:59 50.00137 24.36605 37990 ft 432 kts 261°
2026-05-07 23:59 49.99391 24.27350 37994 ft 431 kts 261°
2026-05-08 00:00 49.98629 24.18159 37993 ft 431 kts 261°
2026-05-08 00:00 49.97860 24.08910 37991 ft 431 kts 261°
2026-05-08 00:01 49.97097 23.99685 37987 ft 430 kts 261°
2026-05-08 00:01 49.96319 23.90477 37991 ft 430 kts 261°
2026-05-08 00:02 49.95544 23.81249 37993 ft 430 kts 260°
2026-05-08 00:02 49.94766 23.72075 37988 ft 431 kts 261°
2026-05-08 00:03 49.93978 23.62844 37991 ft 431 kts 260°
2026-05-08 00:03 49.93180 23.53612 37991 ft 431 kts 260°
2026-05-08 00:04 49.92368 23.44396 37990 ft 431 kts 260°
2026-05-08 00:04 49.91556 23.35177 37988 ft 431 kts 260°
2026-05-08 00:05 49.90743 23.25950 37985 ft 432 kts 259°
2026-05-08 00:05 49.89916 23.16719 37990 ft 432 kts 259°
2026-05-08 00:06 49.89651 23.07406 37991 ft 436 kts 272°
2026-05-08 00:06 49.91101 22.98259 37989 ft 445 kts 287°
2026-05-08 00:07 49.93518 22.89364 37991 ft 449 kts 290°
2026-05-08 00:07 49.96140 22.80549 37986 ft 449 kts 290°
2026-05-08 00:08 49.98687 22.71669 37992 ft 449 kts 289°
2026-05-08 00:08 50.01187 22.62769 37990 ft 449 kts 289°
2026-05-08 00:09 50.03658 22.53910 37989 ft 449 kts 289°
2026-05-08 00:09 50.06156 22.45000 38014 ft 449 kts 289°
2026-05-08 00:10 50.08653 22.36062 37997 ft 451 kts 289°
2026-05-08 00:10 50.11142 22.27072 38014 ft 451 kts 289°
2026-05-08 00:11 50.13632 22.18085 38019 ft 452 kts 289°
2026-05-08 00:11 50.16117 22.09089 38017 ft 452 kts 289°
2026-05-08 00:12 50.18600 22.00063 38020 ft 453 kts 288°
2026-05-08 00:12 50.21068 21.91019 38016 ft 453 kts 288°
2026-05-08 00:13 50.23511 21.82006 38014 ft 453 kts 288°
2026-05-08 00:13 50.25975 21.72936 38007 ft 453 kts 288°
2026-05-08 00:14 50.28433 21.63870 38012 ft 453 kts 288°
2026-05-08 00:14 50.30896 21.54749 37999 ft 456 kts 289°
2026-05-08 00:15 50.33368 21.45602 38001 ft 457 kts 288°
2026-05-08 00:15 50.35836 21.36427 38001 ft 456 kts 288°
2026-05-08 00:16 50.38284 21.27247 38004 ft 456 kts 288°
2026-05-08 00:16 50.40139 21.17886 38007 ft 451 kts 279°
2026-05-08 00:17 50.41448 21.08241 38007 ft 451 kts 278°
2026-05-08 00:17 50.42651 20.98582 38009 ft 451 kts 277°
2026-05-08 00:18 50.43833 20.88916 38010 ft 451 kts 277°
2026-05-08 00:18 50.45010 20.79321 38038 ft 451 kts 277°
2026-05-08 00:19 50.46196 20.69659 38012 ft 452 kts 278°
2026-05-08 00:19 50.47380 20.59975 38018 ft 452 kts 278°
2026-05-08 00:20 50.48556 20.50273 38019 ft 452 kts 277°
2026-05-08 00:20 50.49718 20.40561 38021 ft 452 kts 277°
2026-05-08 00:21 50.50869 20.30915 38024 ft 452 kts 278°
2026-05-08 00:21 50.52023 20.21158 38026 ft 454 kts 278°
2026-05-08 00:22 50.53172 20.11374 38028 ft 455 kts 278°
2026-05-08 00:22 50.54320 20.01600 38029 ft 454 kts 278°
2026-05-08 00:23 50.55445 19.91906 38028 ft 453 kts 277°
2026-05-08 00:23 50.56567 19.82141 38034 ft 454 kts 277°
2026-05-08 00:24 50.57683 19.72336 38035 ft 455 kts 277°
2026-05-08 00:24 50.58792 19.62527 38034 ft 455 kts 277°
2026-05-08 00:25 50.59893 19.52716 38042 ft 455 kts 277°
2026-05-08 00:25 50.60988 19.42902 38058 ft 455 kts 277°
2026-05-08 00:26 50.62071 19.33132 38047 ft 457 kts 277°
2026-05-08 00:26 50.63154 19.23267 38047 ft 457 kts 277°
2026-05-08 00:27 50.64230 19.13388 38052 ft 457 kts 277°
2026-05-08 00:27 50.65295 19.03500 38050 ft 457 kts 277°
2026-05-08 00:28 50.66351 18.93607 38056 ft 457 kts 277°
2026-05-08 00:28 50.67392 18.83702 38054 ft 458 kts 277°
2026-05-08 00:29 50.68422 18.73845 38052 ft 458 kts 277°
2026-05-08 00:29 50.69454 18.63916 38053 ft 458 kts 277°
2026-05-08 00:30 50.70476 18.53993 38059 ft 458 kts 277°
2026-05-08 00:30 50.71492 18.44061 38060 ft 458 kts 277°
2026-05-08 00:31 50.72505 18.34127 38067 ft 458 kts 277°
2026-05-08 00:31 50.73545 18.24203 38072 ft 459 kts 281°
2026-05-08 00:32 50.75013 18.14385 38073 ft 460 kts 282°
2026-05-08 00:32 50.76554 18.04637 38082 ft 460 kts 282°
2026-05-08 00:33 50.78122 17.94835 38065 ft 460 kts 282°
2026-05-08 00:33 50.79667 17.85027 38072 ft 460 kts 282°
2026-05-08 00:34 50.81208 17.75209 38071 ft 460 kts 282°
2026-05-08 00:34 50.82739 17.65397 38080 ft 460 kts 281°
2026-05-08 00:35 50.84258 17.55553 38081 ft 460 kts 281°
2026-05-08 00:35 50.85755 17.45774 38081 ft 460 kts 282°
2026-05-08 00:36 50.87257 17.35929 38079 ft 460 kts 281°
2026-05-08 00:36 50.88745 17.26086 38082 ft 460 kts 281°
2026-05-08 00:37 50.90234 17.16223 38097 ft 460 kts 281°
2026-05-08 00:38 50.92439 17.01457 38080 ft 458 kts 281°
2026-05-08 00:38 50.93656 16.93286 38080 ft 458 kts 281°
2026-05-08 00:39 50.95111 16.83448 38091 ft 458 kts 281°
2026-05-08 00:39 50.96551 16.73610 38094 ft 458 kts 281°
2026-05-08 00:40 50.97996 16.63755 38092 ft 460 kts 281°
2026-05-08 00:40 50.99438 16.53850 38097 ft 461 kts 281°
2026-05-08 00:41 51.00867 16.43928 38103 ft 461 kts 281°
2026-05-08 00:41 51.02282 16.34065 38099 ft 461 kts 281°
2026-05-08 00:42 51.03694 16.24135 38103 ft 461 kts 281°
2026-05-08 00:42 51.05096 16.14177 38107 ft 462 kts 281°
2026-05-08 00:43 51.06489 16.04195 38101 ft 462 kts 281°
2026-05-08 00:43 51.07881 15.94214 38099 ft 462 kts 281°
2026-05-08 00:44 51.09259 15.84292 38103 ft 462 kts 281°
2026-05-08 00:44 51.10630 15.74288 38099 ft 462 kts 281°
2026-05-08 00:45 51.11986 15.64294 38097 ft 462 kts 281°
2026-05-08 00:45 51.13344 15.54300 38099 ft 462 kts 281°
2026-05-08 00:46 51.14691 15.44284 38102 ft 462 kts 281°
2026-05-08 00:46 51.16017 15.34342 38105 ft 462 kts 281°
2026-05-08 00:47 51.17352 15.24309 38106 ft 462 kts 281°
2026-05-08 00:47 51.18680 15.14280 38089 ft 462 kts 281°
2026-05-08 00:48 51.19984 15.04265 38091 ft 462 kts 280°
2026-05-08 00:48 51.20885 14.94197 38104 ft 461 kts 276°
2026-05-08 00:49 51.21620 14.84039 38100 ft 461 kts 276°
2026-05-08 00:49 51.22316 14.73879 38107 ft 460 kts 276°
2026-05-08 00:50 51.23009 14.63728 38110 ft 460 kts 276°
2026-05-08 00:50 51.23701 14.53555 38111 ft 460 kts 275°
2026-05-08 00:51 51.24374 14.43394 38108 ft 460 kts 275°
2026-05-08 00:51 51.25476 14.33397 38112 ft 461 kts 285°
2026-05-08 00:52 51.27366 14.23606 38113 ft 461 kts 287°
2026-05-08 00:52 51.29318 14.13839 38114 ft 462 kts 287°
2026-05-08 00:53 51.31274 14.04065 38109 ft 462 kts 287°
2026-05-08 00:53 51.33221 13.94273 38119 ft 462 kts 287°
2026-05-08 00:54 51.35158 13.84490 37868 ft 461 kts 287°
2026-05-08 00:54 51.36123 13.79593 37260 ft 461 kts 287°
2026-05-08 00:54 51.37083 13.74701 36739 ft 460 kts 287°
2026-05-08 00:54 51.38036 13.69833 36210 ft 458 kts 287°
2026-05-08 00:55 51.38991 13.64956 35668 ft 458 kts 287°
2026-05-08 00:55 51.39929 13.60155 35130 ft 457 kts 287°
2026-05-08 00:55 51.40878 13.55289 34593 ft 457 kts 287°
2026-05-08 00:55 51.41823 13.50430 34012 ft 457 kts 288°
2026-05-08 00:56 51.42769 13.45560 33333 ft 457 kts 288°
2026-05-08 00:56 51.43710 13.40687 32681 ft 456 kts 288°
2026-05-08 00:56 51.44645 13.35835 32029 ft 456 kts 288°
2026-05-08 00:56 51.45577 13.30979 31379 ft 455 kts 288°
2026-05-08 00:57 51.46506 13.26116 30715 ft 455 kts 288°
2026-05-08 00:57 51.47433 13.21252 30044 ft 455 kts 288°
2026-05-08 00:57 51.48343 13.16471 29241 ft 455 kts 288°
2026-05-08 00:57 51.49262 13.11633 28375 ft 450 kts 288°
2026-05-08 00:58 51.50170 13.06851 27251 ft 445 kts 288°
2026-05-08 00:58 51.51063 13.02130 26204 ft 440 kts 288°
2026-05-08 00:58 51.51945 12.97453 25209 ft 434 kts 287°
2026-05-08 00:58 51.52812 12.92841 24250 ft 428 kts 287°
2026-05-08 00:59 51.53703 12.88315 23261 ft 422 kts 291°
2026-05-08 00:59 51.55007 12.84121 22160 ft 417 kts 301°
2026-05-08 00:59 51.56372 12.80115 21112 ft 412 kts 293°
2026-05-08 00:59 51.57100 12.75707 20092 ft 407 kts 276°
2026-05-08 01:00 51.57115 12.71200 19163 ft 401 kts 268°
2026-05-08 01:00 51.56936 12.66758 18213 ft 395 kts 266°
2026-05-08 01:00 51.56730 12.62382 17129 ft 391 kts 266°
2026-05-08 01:00 51.56529 12.58033 16024 ft 388 kts 266°
2026-05-08 01:01 51.56332 12.53733 14879 ft 383 kts 266°
2026-05-08 01:01 51.56140 12.49475 13704 ft 380 kts 267°
2026-05-08 01:01 51.55951 12.45262 12493 ft 377 kts 267°
2026-05-08 01:01 51.55764 12.41078 11673 ft 371 kts 267°
2026-05-08 01:02 51.55581 12.37061 11252 ft 348 kts 267°
2026-05-08 01:02 51.55410 12.33339 11141 ft 320 kts 267°
2026-05-08 01:02 51.55249 12.29912 11221 ft 299 kts 267°
2026-05-08 01:02 51.55092 12.26602 11267 ft 297 kts 267°
2026-05-08 01:03 51.54936 12.23290 11268 ft 298 kts 267°
2026-05-08 01:03 51.54783 12.19982 11265 ft 297 kts 267°
2026-05-08 01:03 51.54629 12.16676 11125 ft 298 kts 267°
2026-05-08 01:03 51.54472 12.13341 10714 ft 299 kts 267°
2026-05-08 01:04 51.54317 12.10071 10413 ft 295 kts 268°
2026-05-08 01:04 51.54160 12.06817 10136 ft 289 kts 268°
2026-05-08 01:04 51.54004 12.03625 9518 ft 285 kts 268°
2026-05-08 01:04 51.53849 12.00453 8841 ft 285 kts 268°
2026-05-08 01:05 51.53695 11.97296 8197 ft 283 kts 267°
2026-05-08 01:05 51.53542 11.94146 7558 ft 281 kts 267°
2026-05-08 01:05 51.53388 11.91032 6939 ft 279 kts 267°
2026-05-08 01:05 51.53237 11.87942 6338 ft 276 kts 266°
2026-05-08 01:06 51.53086 11.84871 5710 ft 274 kts 266°
2026-05-08 01:06 51.52936 11.81818 5227 ft 275 kts 266°
2026-05-08 01:06 51.52786 11.78813 4917 ft 272 kts 266°
2026-05-08 01:06 51.52633 11.75792 4581 ft 271 kts 266°
2026-05-08 01:07 51.52459 11.72792 4233 ft 269 kts 262°
2026-05-08 01:07 51.51895 11.69949 3872 ft 268 kts 240°
2026-05-08 01:07 51.50648 11.67771 3512 ft 266 kts 212°
2026-05-08 01:07 51.48946 11.66763 3292 ft 260 kts 185°
2026-05-08 01:08 51.47170 11.67051 3264 ft 258 kts 159°
2026-05-08 01:08 51.45654 11.68524 3265 ft 255 kts 134°
2026-05-08 01:08 51.44690 11.70882 3268 ft 254 kts 110°
2026-05-08 01:08 51.44240 11.73618 3270 ft 254 kts 101°
2026-05-08 01:09 51.43919 11.76407 3266 ft 254 kts 99°
2026-05-08 01:09 51.43610 11.79197 3267 ft 254 kts 100°
2026-05-08 01:09 51.43185 11.81914 3265 ft 255 kts 112°
2026-05-08 01:09 51.42254 11.84365 3267 ft 255 kts 127°
2026-05-08 01:10 51.41137 11.86502 3260 ft 249 kts 130°
2026-05-08 01:10 51.40205 11.88720 3260 ft 232 kts 111°
2026-05-08 01:10 51.39793 11.91100 3277 ft 214 kts 95°
2026-05-08 01:10 51.39828 11.93385 3261 ft 197 kts 84°
2026-05-08 01:11 51.39973 11.95484 3263 ft 182 kts 84°
2026-05-08 01:11 51.40080 11.97421 3256 ft 168 kts 85°
2026-05-08 01:11 51.40164 11.99270 3145 ft 163 kts 85°
2026-05-08 01:11 51.40246 12.01034 2930 ft 153 kts 85°
2026-05-08 01:12 51.40325 12.02692 2707 ft 148 kts 85°
2026-05-08 01:12 51.40402 12.04331 2498 ft 148 kts 85°
2026-05-08 01:12 51.40478 12.05979 2293 ft 148 kts 85°
2026-05-08 01:12 51.40556 12.07620 2083 ft 148 kts 85°
2026-05-08 01:13 51.40632 12.09252 1885 ft 147 kts 85°
2026-05-08 01:13 51.40709 12.10882 1681 ft 146 kts 85°
2026-05-08 01:13 51.40786 12.12507 1473 ft 146 kts 85°
2026-05-08 01:13 51.40864 12.14107 1247 ft 146 kts 84°
2026-05-08 01:14 51.40946 12.15723 1015 ft 145 kts 85°
2026-05-08 01:14 51.41026 12.17328 832 ft 144 kts 86°
2026-05-08 01:14 51.41096 12.18936 658 ft 145 kts 84°
2026-05-08 01:14 51.41170 12.20528 464 ft 142 kts 85°
2026-05-08 01:15 51.41244 12.21967 461 ft 108 kts 86°
2026-05-08 01:15 51.41276 12.22852 466 ft 51 kts 86°
2026-05-08 01:15 51.41260 12.23223 466 ft 23 kts 130°
2026-05-08 01:15 51.41192 12.23264 469 ft 0 kts 172°
2026-05-08 01:17 51.41191 12.23264 469 ft 1 kts 172°
2026-05-08 01:18 51.41160 12.23272 472 ft 7 kts 172°
2026-05-08 01:18 51.41108 12.23280 475 ft 8 kts 178°
2026-05-08 01:18 51.41048 12.23237 469 ft 12 kts 221°
2026-05-08 01:18 51.40970 12.23189 470 ft 13 kts 178°
2026-05-08 01:19 51.40900 12.23193 467 ft 7 kts 184°
2026-05-08 01:19 51.40879 12.23152 467 ft 4 kts 256°
2026-05-08 01:19 51.40878 12.23105 469 ft 1 kts 267°
2026-05-08 01:19 51.40877 12.23100 469 ft 0 kts 267°